Главная страница
METAR-TAF:

METAR-TAF

Аэропорты :

Нефтяная платформа

F3-fb-1, Нидерланды

широта: 54-51-14N, долгота: 4-41-36E, высота над уровнем моря: 33 м

Текущие метеонаблюдения

Эта сводка был подготовлена 18 минут назад, в 15:25 UTC
Ветер 32 Узел от восточный
Температура 9°C
Влажность 76%
Давление 1005 hPa
Видимость 10 км и более

METAR: EHFD 151525Z AUTO 09032KT 9999 FEW009/// SCT011/// BKN014/// 09/05 Q1005 W///H///

Время: 16:43 (15:43 UTC)


TAF: отсутствует

Метеонаблюдения и прогнозы для более 4000 аэропортов (сводки METAR и TAF).

Имеющиеся станции представлены на карте желтыми и красными точками.

Чтобы увидеть название станции, наведите на нее мышь.

Затем щелкните, чтобы увидеть метеонаблюдения и метеопрогнозы.

Управление картой: чтобы увеличить масштаб, щелкните зеленые кнопки с черным крестиком; чтобы уменьшить масштаб, щелкните зеленую кнопку с тире; для просмотра соседних карт щелкайте зеленые стрелки.


METAR-TAF: